| time (UTC) | temp F | wind direction | speed knots | gust knots | rain 1hr in | rain 24hr in | rain mn in | humidity % | barometer mb |
| 20260508025812 | 52 | 160 | 0.0 | 0.9 | 0.00 | 0.00 | 0.00 | 99 | 1014.0 |
| 20260508025312 | 52 | 160 | 0.0 | 0.0 | 0.00 | 0.00 | 0.00 | 99 | 1014.0 |
| 20260508024812 | 51 | 160 | 0.0 | 0.9 | 0.00 | 0.00 | 0.00 | 99 | 1014.0 |
| 20260508024314 | 51 | 160 | 0.0 | 0.0 | 0.00 | 0.00 | 0.00 | 99 | 1014.0 |
| 20260508023812 | 51 | 160 | 0.0 | 0.0 | 0.00 | 0.00 | 0.00 | 99 | 1014.0 |
| 20260508023313 | 51 | 160 | 0.0 | 0.0 | 0.00 | 0.00 | 0.00 | 99 | 1014.0 |
| 20260508022812 | 51 | 160 | 0.9 | 1.7 | 0.00 | 0.00 | 0.00 | 98 | 1014.0 |
| 20260508022312 | 52 | 159 | 1.7 | 2.6 | 0.00 | 0.00 | 0.00 | 98 | 1014.0 |
| 20260508021813 | 52 | 159 | 0.9 | 1.7 | 0.00 | 0.00 | 0.00 | 99 | 1014.0 |
| 20260508021312 | 52 | 158 | 0.9 | 0.9 | 0.00 | 0.00 | 0.00 | 99 | 1014.0 |
| 20260508020812 | 52 | 158 | 0.0 | 0.9 | 0.00 | 0.00 | 0.00 | 99 | 1014.0 |
| 20260508020313 | 51 | 158 | 0.0 | 0.0 | 0.00 | 0.00 | 0.00 | 99 | 1014.0 |
| 20260508015813 | 52 | 158 | 0.0 | 0.0 | 0.00 | 0.00 | 0.00 | 99 | 1014.0 |
| 20260508015313 | 51 | 158 | 0.0 | 0.0 | 0.00 | 0.00 | 0.00 | 99 | 1014.0 |
| 20260508014812 | 51 | 158 | 0.0 | 0.0 | 0.00 | 0.00 | 0.00 | 98 | 1014.0 |
| 20260508014312 | 51 | 158 | 0.0 | 0.0 | 0.00 | 0.00 | 0.00 | 98 | 1014.0 |
| 20260508013812 | 51 | 158 | 0.0 | 0.0 | 0.00 | 0.00 | 0.00 | 98 | 1014.0 |
| 20260508013312 | 51 | 158 | 0.9 | 0.9 | 0.00 | 0.00 | 0.00 | 98 | 1014.0 |
| 20260508012813 | 52 | 158 | 0.0 | 0.0 | 0.00 | 0.00 | 0.00 | 98 | 1014.0 |
| 20260508012312 | 51 | 158 | 0.0 | 0.0 | 0.00 | 0.00 | 0.00 | 98 | 1014.0 |
| 20260508011812 | 52 | 158 | 0.0 | 0.0 | 0.00 | 0.00 | 0.00 | 98 | 1014.0 |
| 20260508011313 | 52 | 158 | 0.0 | 0.9 | 0.00 | 0.00 | 0.00 | 98 | 1014.0 |
| 20260508010812 | 52 | 158 | 0.0 | 0.0 | 0.00 | 0.00 | 0.00 | 98 | 1014.0 |
| 20260508010314 | 52 | 158 | 0.0 | 0.0 | 0.00 | 0.00 | 0.00 | 98 | 1014.0 |
| 20260508005812 | 52 | 158 | 0.0 | 0.9 | 0.00 | 0.00 | 0.00 | 98 | 1014.0 |
| 20260508005312 | 51 | 158 | 0.0 | 0.9 | 0.00 | 0.00 | 0.00 | 97 | 1014.0 |
| 20260508004812 | 52 | 158 | 0.9 | 1.7 | 0.00 | 0.00 | 0.00 | 97 | 1014.0 |
| 20260508004312 | 53 | 158 | 1.7 | 1.7 | 0.00 | 0.00 | 0.00 | 97 | 1014.0 |
| 20260508003812 | 53 | 158 | 0.0 | 0.0 | 0.00 | 0.00 | 0.00 | 97 | 1014.0 |
| 20260508003312 | 53 | 158 | 0.0 | 0.0 | 0.00 | 0.00 | 0.00 | 97 | 1014.0 |
| 20260508002812 | 53 | 157 | 0.0 | 0.0 | 0.00 | 0.00 | 0.00 | 97 | 1014.0 |
| 20260508002312 | 53 | 158 | 0.0 | 0.0 | 0.00 | 0.00 | 0.00 | 97 | 1014.0 |
| 20260508001812 | 53 | 158 | 0.0 | 0.0 | 0.00 | 0.00 | 0.00 | 97 | 1014.0 |
| 20260508001313 | 53 | 158 | 0.0 | 0.0 | 0.00 | 0.00 | 0.00 | 97 | 1014.0 |
| 20260508000812 | 53 | 158 | 0.0 | 0.0 | 0.00 | 0.00 | 0.00 | 97 | 1014.0 |
| 20260508000312 | 53 | 158 | 0.0 | 0.9 | 0.00 | 0.00 | 0.00 | 97 | 1014.0 |
| 20260507235813 | 54 | 158 | 0.0 | 0.0 | 0.00 | 0.00 | 0.00 | 96 | 1014.0 |
| 20260507235314 | 54 | 158 | 0.0 | 0.0 | 0.00 | 0.00 | 0.00 | 96 | 1014.0 |
| 20260507234814 | 54 | 158 | 0.0 | 0.0 | 0.00 | 0.00 | 0.00 | 96 | 1014.0 |
| 20260507234312 | 54 | 158 | 0.0 | 0.0 | 0.00 | 0.00 | 0.00 | 96 | 1014.0 |
| 20260507233812 | 54 | 158 | 0.0 | 0.0 | 0.00 | 0.00 | 0.00 | 96 | 1014.0 |
| 20260507233315 | 54 | 158 | 0.0 | 0.0 | 0.00 | 0.00 | 0.00 | 96 | 1014.0 |
| 20260507232812 | 55 | 158 | 0.0 | 0.0 | 0.00 | 0.00 | 0.00 | 95 | 1014.0 |
| 20260507232312 | 55 | 158 | 0.0 | 0.0 | 0.00 | 0.00 | 0.00 | 95 | 1014.0 |
| 20260507231812 | 55 | 158 | 0.0 | 0.0 | 0.00 | 0.00 | 0.00 | 95 | 1014.0 |
| 20260507231313 | 55 | 158 | 0.0 | 0.0 | 0.00 | 0.00 | 0.00 | 95 | 1014.0 |
| 20260507230814 | 55 | 158 | 0.0 | 0.9 | 0.00 | 0.00 | 0.00 | 95 | 1015.0 |
| 20260507230312 | 55 | 158 | 0.9 | 1.7 | 0.00 | 0.00 | 0.00 | 94 | 1014.0 |
| 20260507225812 | 55 | 158 | 0.9 | 1.7 | 0.00 | 0.00 | 0.00 | 94 | 1014.0 |
| 20260507225312 | 56 | 157 | 0.9 | 0.9 | 0.00 | 0.00 | 0.00 | 94 | 1014.0 |
| 20260507224813 | 56 | 157 | 0.9 | 1.7 | 0.00 | 0.00 | 0.00 | 94 | 1015.0 |
| 20260507224313 | 56 | 157 | 0.0 | 0.0 | 0.00 | 0.00 | 0.00 | 93 | 1014.0 |
| 20260507223813 | 56 | 157 | 0.9 | 0.9 | 0.00 | 0.00 | 0.00 | 94 | 1014.0 |
| 20260507223313 | 56 | 157 | 0.0 | 0.9 | 0.00 | 0.00 | 0.00 | 93 | 1014.0 |
| 20260507222812 | 56 | 157 | 0.0 | 0.9 | 0.00 | 0.00 | 0.00 | 93 | 1014.0 |
| 20260507222313 | 57 | 157 | 0.0 | 0.9 | 0.00 | 0.00 | 0.00 | 93 | 1014.0 |
| 20260507221812 | 57 | 157 | 0.0 | 0.0 | 0.00 | 0.00 | 0.00 | 93 | 1014.0 |
| 20260507221312 | 57 | 157 | 0.0 | 0.0 | 0.00 | 0.00 | 0.00 | 93 | 1014.0 |
| 20260507220812 | 57 | 157 | 0.0 | 0.9 | 0.00 | 0.00 | 0.00 | 94 | 1014.0 |
| 20260507220312 | 57 | 157 | 0.0 | 0.0 | 0.00 | 0.00 | 0.00 | 94 | 1014.0 |
| 20260507215812 | 56 | 157 | 0.9 | 0.9 | 0.00 | 0.00 | 0.00 | 95 | 1014.0 |
| 20260507215312 | 56 | 157 | 0.9 | 0.9 | 0.00 | 0.00 | 0.00 | 95 | 1014.0 |
| 20260507214812 | 56 | 157 | 0.9 | 0.9 | 0.00 | 0.00 | 0.00 | 95 | 1014.0 |
| 20260507214312 | 56 | 157 | 0.0 | 0.0 | 0.00 | 0.00 | 0.00 | 94 | 1014.0 |
| 20260507213813 | 56 | 157 | 0.0 | 0.0 | 0.00 | 0.00 | 0.00 | 94 | 1014.0 |
| 20260507213312 | 56 | 157 | 0.0 | 0.0 | 0.00 | 0.00 | 0.00 | 94 | 1014.0 |
| 20260507212812 | 56 | 157 | 0.0 | 0.0 | 0.00 | 0.00 | 0.00 | 94 | 1014.0 |
| 20260507212313 | 56 | 157 | 0.9 | 0.9 | 0.00 | 0.00 | 0.00 | 93 | 1014.0 |
| 20260507211812 | 57 | 157 | 0.9 | 0.9 | 0.00 | 0.00 | 0.00 | 94 | 1014.0 |
| 20260507211314 | 56 | 157 | 0.9 | 1.7 | 0.00 | 0.00 | 0.00 | 94 | 1014.0 |
| 20260507210812 | 56 | 157 | 0.0 | 0.0 | 0.00 | 0.00 | 0.00 | 94 | 1014.0 |
| 20260507210314 | 56 | 157 | 0.0 | 0.0 | 0.00 | 0.00 | 0.00 | 94 | 1014.0 |
| 20260507205813 | 57 | 157 | 0.0 | 0.0 | 0.00 | 0.00 | 0.00 | 93 | 1014.0 |
| 20260507205313 | 57 | 157 | 0.9 | 0.9 | 0.00 | 0.00 | 0.00 | 93 | 1014.0 |
| 20260507204812 | 57 | 157 | 0.9 | 0.9 | 0.00 | 0.00 | 0.00 | 93 | 1014.0 |
| 20260507204313 | 57 | 157 | 1.7 | 2.6 | 0.00 | 0.00 | 0.00 | 92 | 1014.0 |
| 20260507203812 | 58 | 101 | 1.7 | 1.7 | 0.00 | 0.00 | 0.00 | 92 | 1015.0 |
| 20260507203316 | 58 | 100 | 0.9 | 0.9 | 0.00 | 0.00 | 0.00 | 91 | 1015.0 |
| 20260507202813 | 59 | 100 | 0.0 | 0.0 | 0.00 | 0.00 | 0.00 | 91 | 1014.0 |
| 20260507202312 | 58 | 100 | 0.0 | 0.0 | 0.00 | 0.00 | 0.00 | 91 | 1015.0 |
| 20260507201812 | 58 | 100 | 0.0 | 0.0 | 0.00 | 0.00 | 0.00 | 91 | 1015.0 |
| 20260507201312 | 58 | 100 | 0.9 | 0.9 | 0.00 | 0.00 | 0.00 | 91 | 1014.0 |
| 20260507200813 | 58 | 100 | 0.0 | 0.9 | 0.00 | 0.00 | 0.00 | 90 | 1014.0 |
| 20260507200312 | 59 | 100 | 0.9 | 0.9 | 0.00 | 0.00 | 0.00 | 91 | 1014.0 |
| 20260507195813 | 59 | 100 | 0.0 | 0.0 | 0.00 | 0.00 | 0.00 | 90 | 1015.0 |
| 20260507195312 | 59 | 100 | 0.0 | 0.0 | 0.00 | 0.00 | 0.00 | 89 | 1015.0 |
| 20260507194813 | 59 | 100 | 0.0 | 0.0 | 0.00 | 0.00 | 0.00 | 89 | 1014.0 |
| 20260507194313 | 59 | 100 | 0.0 | 0.0 | 0.00 | 0.00 | 0.00 | 88 | 1014.0 |
| 20260507193812 | 60 | 100 | 0.0 | 0.0 | 0.00 | 0.00 | 0.00 | 88 | 1014.0 |
| 20260507193312 | 60 | 100 | 0.9 | 0.9 | 0.00 | 0.00 | 0.00 | 87 | 1014.0 |
| 20260507192813 | 60 | 100 | 0.0 | 0.0 | 0.00 | 0.00 | 0.00 | 86 | 1014.0 |
| 20260507192312 | 60 | 100 | 0.0 | 0.9 | 0.00 | 0.00 | 0.00 | 85 | 1014.0 |
| 20260507191813 | 61 | 100 | 0.9 | 0.9 | 0.00 | 0.00 | 0.00 | 86 | 1014.0 |
| 20260507191312 | 61 | 100 | 0.9 | 0.9 | 0.00 | 0.00 | 0.00 | 86 | 1014.0 |
| 20260507190812 | 60 | 100 | 0.0 | 0.0 | 0.00 | 0.00 | 0.00 | 86 | 1014.0 |
| 20260507190313 | 61 | 100 | 0.0 | 0.0 | 0.00 | 0.00 | 0.00 | 85 | 1014.0 |
| 20260507185812 | 61 | 100 | 0.0 | 0.0 | 0.00 | 0.00 | 0.00 | 84 | 1014.0 |
| 20260507185312 | 62 | 100 | 0.0 | 0.0 | 0.00 | 0.00 | 0.00 | 84 | 1014.0 |
| 20260507184815 | 62 | 100 | 0.0 | 0.0 | 0.00 | 0.00 | 0.00 | 83 | 1014.0 |
| 20260507184313 | 62 | 100 | 0.0 | 0.0 | 0.00 | 0.00 | 0.00 | 83 | 1014.0 |
| 20260507183813 | 62 | 100 | 0.0 | 0.0 | 0.00 | 0.00 | 0.00 | 82 | 1014.0 |
| 20260507183313 | 63 | 100 | 0.0 | 0.0 | 0.00 | 0.00 | 0.00 | 81 | 1014.0 |
| 20260507182812 | 63 | 100 | 0.0 | 0.0 | 0.00 | 0.00 | 0.00 | 80 | 1014.0 |
| 20260507182313 | 64 | 100 | 0.0 | 0.0 | 0.00 | 0.00 | 0.00 | 80 | 1014.0 |
| 20260507181814 | 64 | 100 | 0.0 | 0.0 | 0.00 | 0.00 | 0.00 | 79 | 1014.0 |
| 20260507181312 | 64 | 100 | 0.9 | 1.7 | 0.00 | 0.00 | 0.00 | 78 | 1014.0 |
| 20260507180814 | 65 | 108 | 2.6 | 2.6 | 0.00 | 0.00 | 0.00 | 78 | 1014.0 |
| 20260507180313 | 65 | 109 | 0.9 | 2.6 | 0.00 | 0.00 | 0.00 | 79 | 1014.0 |
| 20260507175812 | 65 | 109 | 2.6 | 6.1 | 0.00 | 0.00 | 0.00 | 79 | 1014.0 |
| 20260507175313 | 65 | 109 | 0.9 | 2.6 | 0.00 | 0.00 | 0.00 | 80 | 1014.0 |
| 20260507174813 | 66 | 158 | 1.7 | 4.3 | 0.00 | 0.00 | 0.00 | 80 | 1014.0 |
| 20260507174313 | 66 | 129 | 3.5 | 6.1 | 0.00 | 0.00 | 0.00 | 80 | 1014.0 |
| 20260507173814 | 66 | 108 | 3.5 | 5.2 | 0.00 | 0.00 | 0.00 | 82 | 1014.0 |
| 20260507173313 | 66 | 117 | 2.6 | 7.8 | 0.00 | 0.00 | 0.00 | 83 | 1013.0 |
| 20260507172812 | 66 | 107 | 1.7 | 4.3 | 0.00 | 0.00 | 0.00 | 83 | 1014.0 |
| 20260507172312 | 66 | 121 | 2.6 | 7.0 | 0.00 | 0.00 | 0.00 | 84 | 1014.0 |
| 20260507171814 | 66 | 133 | 4.3 | 7.8 | 0.00 | 0.00 | 0.00 | 84 | 1014.0 |
| 20260507171313 | 66 | 101 | 7.0 | 8.7 | 0.00 | 0.00 | 0.00 | 83 | 1014.0 |
| 20260507170812 | 66 | 135 | 4.3 | 8.7 | 0.00 | 0.00 | 0.00 | 83 | 1014.0 |
| 20260507170313 | 66 | 105 | 2.6 | 7.0 | 0.00 | 0.00 | 0.00 | 84 | 1014.0 |
| 20260507165816 | 66 | 84 | 4.3 | 7.0 | 0.00 | 0.00 | 0.00 | 83 | 1014.0 |
| 20260507165313 | 66 | 107 | 6.1 | 11.3 | 0.00 | 0.00 | 0.00 | 83 | 1014.0 |
| 20260507164812 | 66 | 87 | 5.2 | 7.0 | 0.00 | 0.00 | 0.00 | 80 | 1014.0 |
| 20260507164312 | 66 | 107 | 5.2 | 9.6 | 0.00 | 0.00 | 0.00 | 79 | 1014.0 |
| 20260507163813 | 66 | 106 | 5.2 | 7.8 | 0.00 | 0.00 | 0.00 | 78 | 1014.0 |
| 20260507163312 | 67 | 111 | 5.2 | 6.1 | 0.00 | 0.00 | 0.00 | 77 | 1014.0 |
| 20260507162813 | 67 | 113 | 3.5 | 8.7 | 0.00 | 0.00 | 0.00 | 73 | 1014.0 |
| 20260507162313 | 67 | 84 | 4.3 | 8.7 | 0.00 | 0.00 | 0.00 | 72 | 1014.0 |
| 20260507161813 | 67 | 111 | 5.2 | 7.8 | 0.00 | 0.00 | 0.00 | 71 | 1014.0 |
| 20260507161312 | 67 | 117 | 5.2 | 8.7 | 0.00 | 0.00 | 0.00 | 69 | 1014.0 |
| 20260507160812 | 67 | 103 | 6.1 | 7.8 | 0.00 | 0.00 | 0.00 | 66 | 1014.0 |
| 20260507160312 | 67 | 80 | 6.1 | 7.0 | 0.00 | 0.00 | 0.00 | 68 | 1014.0 |
| 20260507155813 | 67 | 105 | 3.5 | 6.1 | 0.00 | 0.00 | 0.00 | 67 | 1014.0 |
| 20260507155312 | 67 | 75 | 6.1 | 7.0 | 0.00 | 0.00 | 0.00 | 68 | 1014.0 |
| 20260507154813 | 67 | 91 | 3.5 | 7.0 | 0.00 | 0.00 | 0.00 | 67 | 1014.0 |
| 20260507154312 | 67 | 72 | 6.1 | 7.8 | 0.00 | 0.00 | 0.00 | 67 | 1014.0 |
| 20260507153813 | 67 | 64 | 4.3 | 7.8 | 0.00 | 0.00 | 0.00 | 64 | 1014.0 |
| 20260507153314 | 68 | 52 | 6.1 | 9.6 | 0.00 | 0.00 | 0.00 | 64 | 1014.0 |
| 20260507152812 | 68 | 75 | 4.3 | 7.8 | 0.00 | 0.00 | 0.00 | 62 | 1014.0 |
| 20260507152318 | 68 | 92 | 6.1 | 7.8 | 0.00 | 0.00 | 0.00 | 62 | 1014.0 |
| 20260507151813 | 68 | 56 | 4.3 | 9.6 | 0.00 | 0.00 | 0.00 | 61 | 1014.0 |
| 20260507151312 | 68 | 116 | 2.6 | 6.1 | 0.00 | 0.00 | 0.00 | 63 | 1014.0 |
| 20260507150814 | 68 | 35 | 5.2 | 9.6 | 0.00 | 0.00 | 0.00 | 59 | 1014.0 |
| 20260507150314 | 68 | 77 | 5.2 | 9.6 | 0.00 | 0.00 | 0.00 | 63 | 1014.0 |
| 20260507145812 | 68 | 78 | 4.3 | 9.6 | 0.00 | 0.00 | 0.00 | 61 | 1014.0 |
| 20260507145313 | 68 | 48 | 5.2 | 7.8 | 0.00 | 0.00 | 0.00 | 59 | 1014.0 |
| 20260507144813 | 68 | 52 | 2.6 | 9.6 | 0.00 | 0.00 | 0.00 | 65 | 1014.0 |
| 20260507144317 | 68 | 38 | 7.8 | 11.3 | 0.00 | 0.00 | 0.00 | 64 | 1014.0 |
| 20260507143812 | 68 | 65 | 7.8 | 11.3 | 0.00 | 0.00 | 0.00 | 64 | 1014.0 |
| 20260507143312 | 68 | 46 | 4.3 | 8.7 | 0.00 | 0.00 | 0.00 | 63 | 1014.0 |
| 20260507142813 | 68 | 78 | 5.2 | 9.6 | 0.00 | 0.00 | 0.00 | 61 | 1014.0 |
| 20260507142321 | 68 | 46 | 3.5 | 7.8 | 0.00 | 0.00 | 0.00 | 64 | 1014.0 |
| 20260507141817 | 68 | 55 | 6.1 | 7.0 | 0.00 | 0.00 | 0.00 | 62 | 1014.0 |
| 20260507141313 | 69 | 54 | 7.8 | 9.6 | 0.00 | 0.00 | 0.00 | 63 | 1014.0 |
| 20260507140813 | 68 | 95 | 2.6 | 9.6 | 0.00 | 0.00 | 0.00 | 64 | 1014.0 |
| 20260507140313 | 68 | 44 | 7.0 | 12.2 | 0.00 | 0.00 | 0.00 | 65 | 1014.0 |
| 20260507135813 | 68 | 70 | 3.5 | 7.8 | 0.00 | 0.00 | 0.00 | 63 | 1014.0 |
| 20260507135312 | 67 | 64 | 6.1 | 8.7 | 0.00 | 0.00 | 0.00 | 66 | 1014.0 |
| 20260507134812 | 68 | 47 | 5.2 | 11.3 | 0.00 | 0.00 | 0.00 | 64 | 1014.0 |
| 20260507134314 | 69 | 51 | 4.3 | 8.7 | 0.00 | 0.00 | 0.00 | 61 | 1014.0 |
| 20260507133814 | 69 | 59 | 4.3 | 7.8 | 0.00 | 0.00 | 0.00 | 62 | 1014.0 |
| 20260507133312 | 69 | 47 | 6.1 | 7.8 | 0.00 | 0.00 | 0.00 | 63 | 1014.0 |
| 20260507132813 | 69 | 68 | 4.3 | 7.0 | 0.00 | 0.00 | 0.00 | 62 | 1014.0 |
| 20260507132312 | 69 | 52 | 4.3 | 7.8 | 0.00 | 0.00 | 0.00 | 65 | 1014.0 |
| 20260507131812 | 69 | 81 | 3.5 | 8.7 | 0.00 | 0.00 | 0.00 | 62 | 1014.0 |
| 20260507131313 | 68 | 81 | 6.1 | 8.7 | 0.00 | 0.00 | 0.00 | 64 | 1014.0 |
| 20260507130813 | 68 | 67 | 2.6 | 7.8 | 0.00 | 0.00 | 0.00 | 64 | 1014.0 |
| 20260507130313 | 68 | 17 | 5.2 | 12.2 | 0.00 | 0.00 | 0.00 | 64 | 1014.0 |
| 20260507125813 | 69 | 50 | 7.8 | 11.3 | 0.00 | 0.00 | 0.00 | 61 | 1014.0 |
| 20260507125312 | 69 | 55 | 5.2 | 8.7 | 0.00 | 0.00 | 0.00 | 62 | 1014.0 |
| 20260507124813 | 68 | 15 | 6.1 | 8.7 | 0.00 | 0.00 | 0.00 | 65 | 1014.0 |
| 20260507124315 | 68 | 34 | 7.0 | 8.7 | 0.00 | 0.00 | 0.00 | 63 | 1014.0 |
| 20260507123812 | 68 | 57 | 6.1 | 12.2 | 0.00 | 0.00 | 0.00 | 62 | 1014.0 |
| 20260507123313 | 68 | 18 | 7.8 | 9.6 | 0.00 | 0.00 | 0.00 | 63 | 1014.0 |
| 20260507122812 | 68 | 39 | 7.0 | 9.6 | 0.00 | 0.00 | 0.00 | 63 | 1014.0 |
| 20260507122313 | 69 | 51 | 8.7 | 12.2 | 0.00 | 0.00 | 0.00 | 61 | 1014.0 |
| 20260507121812 | 68 | 47 | 5.2 | 9.6 | 0.00 | 0.00 | 0.00 | 64 | 1014.0 |
| 20260507121312 | 69 | 9 | 7.8 | 11.3 | 0.00 | 0.00 | 0.00 | 63 | 1014.0 |
| 20260507120812 | 68 | 24 | 5.2 | 9.6 | 0.00 | 0.00 | 0.00 | 64 | 1014.0 |
| 20260507120312 | 68 | 14 | 6.1 | 8.7 | 0.00 | 0.00 | 0.00 | 63 | 1014.0 |
| 20260507115812 | 68 | 36 | 7.8 | 9.6 | 0.00 | 0.00 | 0.00 | 63 | 1014.0 |
| 20260507115313 | 68 | 30 | 6.1 | 11.3 | 0.00 | 0.00 | 0.00 | 58 | 1014.0 |
| 20260507114813 | 68 | 10 | 7.0 | 13.0 | 0.00 | 0.00 | 0.00 | 62 | 1015.0 |
| 20260507114312 | 69 | 34 | 7.8 | 9.6 | 0.00 | 0.00 | 0.00 | 60 | 1014.0 |
| 20260507113812 | 68 | 29 | 4.3 | 7.8 | 0.00 | 0.00 | 0.00 | 58 | 1014.0 |
| 20260507113312 | 68 | 48 | 4.3 | 8.7 | 0.00 | 0.00 | 0.00 | 58 | 1014.0 |
| 20260507112812 | 68 | 30 | 7.0 | 8.7 | 0.00 | 0.00 | 0.00 | 62 | 1014.0 |
| 20260507112313 | 67 | 13 | 4.3 | 9.6 | 0.00 | 0.00 | 0.00 | 62 | 1015.0 |
| 20260507111812 | 67 | 37 | 4.3 | 11.3 | 0.00 | 0.00 | 0.00 | 66 | 1014.0 |
| 20260507111312 | 67 | 42 | 6.1 | 9.6 | 0.00 | 0.00 | 0.00 | 59 | 1014.0 |
| 20260507110813 | 67 | 51 | 4.3 | 9.6 | 0.00 | 0.00 | 0.00 | 62 | 1015.0 |
| 20260507110312 | 67 | 47 | 5.2 | 7.8 | 0.00 | 0.00 | 0.00 | 64 | 1015.0 |
| 20260507105813 | 67 | 46 | 6.1 | 12.2 | 0.00 | 0.00 | 0.00 | 58 | 1015.0 |
| 20260507105312 | 67 | 47 | 9.6 | 12.2 | 0.00 | 0.00 | 0.00 | 61 | 1014.0 |
| 20260507104812 | 68 | 32 | 7.8 | 11.3 | 0.00 | 0.00 | 0.00 | 62 | 1014.0 |
| 20260507104312 | 68 | 15 | 7.8 | 9.6 | 0.00 | 0.00 | 0.00 | 60 | 1015.0 |
| 20260507103813 | 68 | 47 | 6.1 | 9.6 | 0.00 | 0.00 | 0.00 | 65 | 1014.0 |
| 20260507103312 | 68 | 35 | 5.2 | 8.7 | 0.00 | 0.00 | 0.00 | 62 | 1014.0 |
| 20260507102812 | 69 | 53 | 7.0 | 12.2 | 0.00 | 0.00 | 0.00 | 64 | 1014.0 |
| 20260507102312 | 69 | 339 | 4.3 | 8.7 | 0.00 | 0.00 | 0.00 | 66 | 1015.0 |
| 20260507101812 | 68 | 46 | 6.1 | 9.6 | 0.00 | 0.00 | 0.00 | 61 | 1015.0 |
| 20260507101312 | 68 | 28 | 5.2 | 8.7 | 0.00 | 0.00 | 0.00 | 63 | 1014.0 |
| 20260507100813 | 68 | 17 | 5.2 | 9.6 | 0.00 | 0.00 | 0.00 | 63 | 1015.0 |
| 20260507100312 | 68 | 14 | 4.3 | 9.6 | 0.00 | 0.00 | 0.00 | 65 | 1015.0 |
| 20260507095326 | 68 | 62 | 4.3 | 7.0 | 0.00 | 0.00 | 0.00 | 67 | 1014.0 |
| 20260507094813 | 68 | 3 | 7.8 | 9.6 | 0.00 | 0.00 | 0.00 | 65 | 1014.0 |
| 20260507094312 | 68 | 27 | 4.3 | 8.7 | 0.00 | 0.00 | 0.00 | 64 | 1015.0 |
| 20260507093812 | 68 | 41 | 4.3 | 8.7 | 0.00 | 0.00 | 0.00 | 63 | 1015.0 |
| 20260507093312 | 68 | 50 | 4.3 | 7.8 | 0.00 | 0.00 | 0.00 | 64 | 1015.0 |
| 20260507092812 | 68 | 357 | 6.1 | 7.8 | 0.00 | 0.00 | 0.00 | 62 | 1015.0 |
| 20260507092312 | 68 | 27 | 4.3 | 11.3 | 0.00 | 0.00 | 0.00 | 64 | 1015.0 |
| 20260507091814 | 67 | 50 | 7.0 | 8.7 | 0.00 | 0.00 | 0.00 | 65 | 1014.0 |
| 20260507091312 | 67 | 44 | 7.0 | 11.3 | 0.00 | 0.00 | 0.00 | 63 | 1015.0 |
| 20260507090812 | 67 | 81 | 6.1 | 9.6 | 0.00 | 0.00 | 0.00 | 67 | 1014.0 |
| 20260507090312 | 67 | 77 | 6.1 | 13.0 | 0.00 | 0.00 | 0.00 | 67 | 1014.0 |
| 20260507085812 | 67 | 41 | 8.7 | 9.6 | 0.00 | 0.00 | 0.00 | 69 | 1015.0 |
| 20260507085313 | 66 | 31 | 7.0 | 12.2 | 0.00 | 0.00 | 0.00 | 69 | 1015.0 |
| 20260507084812 | 67 | 48 | 7.0 | 11.3 | 0.00 | 0.00 | 0.00 | 70 | 1015.0 |
| 20260507084312 | 69 | 47 | 6.1 | 8.7 | 0.00 | 0.00 | 0.00 | 67 | 1015.0 |
| 20260507083813 | 68 | 69 | 4.3 | 7.0 | 0.00 | 0.00 | 0.00 | 70 | 1014.0 |
| 20260507083313 | 69 | 19 | 2.6 | 7.0 | 0.00 | 0.00 | 0.00 | 67 | 1014.0 |
| 20260507082813 | 68 | 80 | 0.9 | 4.3 | 0.00 | 0.00 | 0.00 | 63 | 1014.0 |
| 20260507082312 | 69 | 4 | 2.6 | 5.2 | 0.00 | 0.00 | 0.00 | 65 | 1014.0 |
| 20260507081812 | 69 | 317 | 3.5 | 7.8 | 0.00 | 0.00 | 0.00 | 56 | 1014.0 |
| 20260507081313 | 69 | 286 | 1.7 | 4.3 | 0.00 | 0.00 | 0.00 | 55 | 1014.0 |
| 20260507080813 | 69 | 276 | 0.9 | 1.7 | 0.00 | 0.00 | 0.00 | 56 | 1014.0 |
| 20260507080313 | 69 | 232 | 1.7 | 2.6 | 0.00 | 0.00 | 0.00 | 56 | 1014.0 |
| 20260507075813 | 69 | 337 | 0.0 | 1.7 | 0.00 | 0.00 | 0.00 | 58 | 1014.0 |
| 20260507075313 | 68 | 75 | 0.9 | 1.7 | 0.00 | 0.00 | 0.00 | 62 | 1014.0 |
| 20260507074812 | 68 | 76 | 0.0 | 2.6 | 0.00 | 0.00 | 0.00 | 61 | 1014.0 |
| 20260507074312 | 68 | 76 | 0.0 | 2.6 | 0.00 | 0.00 | 0.00 | 65 | 1014.0 |
| 20260507073812 | 67 | 31 | 0.9 | 4.3 | 0.00 | 0.00 | 0.00 | 64 | 1014.0 |
| 20260507073313 | 68 | 31 | 0.9 | 2.6 | 0.00 | 0.00 | 0.00 | 63 | 1014.0 |
| 20260507072812 | 67 | 31 | 0.0 | 2.6 | 0.00 | 0.00 | 0.00 | 63 | 1014.0 |
| 20260507072313 | 67 | 30 | 0.9 | 2.6 | 0.00 | 0.00 | 0.00 | 66 | 1014.0 |
| 20260507071813 | 67 | 30 | 0.0 | 0.0 | 0.00 | 0.00 | 0.00 | 67 | 1014.0 |
| 20260507071314 | 66 | 30 | 0.0 | 0.9 | 0.00 | 0.00 | 0.00 | 69 | 1014.0 |
| 20260507070813 | 66 | 30 | 0.9 | 0.9 | 0.00 | 0.00 | 0.00 | 73 | 1014.0 |
| 20260507070312 | 66 | 30 | 0.9 | 1.7 | 0.00 | 0.00 | 0.00 | 72 | 1014.0 |
| 20260507065812 | 65 | 54 | 0.9 | 1.7 | 0.00 | 0.00 | 0.00 | 74 | 1014.0 |
| 20260507065312 | 65 | 82 | 1.7 | 1.7 | 0.00 | 0.00 | 0.00 | 75 | 1014.0 |
| 20260507064812 | 65 | 83 | 1.7 | 6.1 | 0.00 | 0.00 | 0.00 | 75 | 1014.0 |
| 20260507064312 | 64 | 105 | 0.9 | 0.9 | 0.00 | 0.00 | 0.00 | 80 | 1014.0 |
| 20260507063812 | 64 | 104 | 2.6 | 2.6 | 0.00 | 0.00 | 0.00 | 82 | 1014.0 |
| 20260507063312 | 63 | 101 | 0.9 | 1.7 | 0.00 | 0.00 | 0.00 | 83 | 1014.0 |
| 20260507062812 | 62 | 102 | 0.0 | 0.9 | 0.00 | 0.00 | 0.00 | 84 | 1014.0 |
| 20260507062312 | 62 | 102 | 0.0 | 0.9 | 0.00 | 0.00 | 0.00 | 85 | 1014.0 |
| 20260507061813 | 63 | 101 | 0.9 | 1.7 | 0.00 | 0.00 | 0.00 | 84 | 1014.0 |
| 20260507061312 | 63 | 101 | 1.7 | 4.3 | 0.00 | 0.00 | 0.00 | 83 | 1014.0 |
| 20260507060812 | 65 | 85 | 1.7 | 2.6 | 0.00 | 0.00 | 0.00 | 78 | 1014.0 |
| 20260507060312 | 64 | 240 | 2.6 | 2.6 | 0.00 | 0.00 | 0.00 | 75 | 1014.0 |
| 20260507055812 | 64 | 237 | 2.6 | 5.2 | 0.00 | 0.00 | 0.00 | 77 | 1014.0 |
| 20260507055312 | 63 | 255 | 3.5 | 6.1 | 0.00 | 0.00 | 0.00 | 78 | 1013.0 |
| 20260507054813 | 61 | 242 | 2.6 | 5.2 | 0.00 | 0.00 | 0.00 | 86 | 1013.0 |
| 20260507054312 | 59 | 223 | 0.9 | 1.7 | 0.00 | 0.00 | 0.00 | 93 | 1013.0 |
| 20260507053812 | 59 | 222 | 0.9 | 1.7 | 0.00 | 0.00 | 0.00 | 93 | 1013.0 |
| 20260507053312 | 58 | 221 | 0.0 | 0.0 | 0.00 | 0.00 | 0.00 | 94 | 1013.0 |
| 20260507052813 | 58 | 221 | 0.9 | 1.7 | 0.00 | 0.00 | 0.00 | 94 | 1013.0 |
| 20260507052312 | 58 | 223 | 0.0 | 0.0 | 0.00 | 0.00 | 0.00 | 94 | 1013.0 |
| 20260507051812 | 58 | 222 | 0.0 | 0.9 | 0.00 | 0.00 | 0.00 | 94 | 1013.0 |
| 20260507051313 | 58 | 222 | 0.9 | 0.9 | 0.00 | 0.00 | 0.00 | 94 | 1013.0 |
| 20260507050813 | 58 | 223 | 0.0 | 0.0 | 0.00 | 0.00 | 0.00 | 94 | 1013.0 |
| 20260507050313 | 58 | 223 | 0.9 | 1.7 | 0.00 | 0.00 | 0.00 | 93 | 1013.0 |
| 20260507045813 | 59 | 223 | 0.0 | 0.9 | 0.00 | 0.00 | 0.00 | 93 | 1013.0 |
| 20260507045314 | 59 | 228 | 1.7 | 1.7 | 0.00 | 0.00 | 0.00 | 94 | 1013.0 |
| 20260507044812 | 58 | 228 | 0.0 | 0.9 | 0.00 | 0.00 | 0.00 | 94 | 1013.0 |
| 20260507044312 | 58 | 228 | 0.9 | 1.7 | 0.00 | 0.00 | 0.00 | 94 | 1013.0 |
| 20260507043329 | 57 | 228 | 2.6 | 2.6 | 0.00 | 0.00 | 0.00 | 95 | 1013.0 |
| 20260507042815 | 57 | 227 | 1.7 | 2.6 | 0.00 | 0.00 | 0.00 | 96 | 1012.0 |
| 20260507042313 | 56 | 193 | 1.7 | 1.7 | 0.00 | 0.00 | 0.00 | 96 | 1012.0 |
| 20260507041812 | 56 | 193 | 0.0 | 1.7 | 0.00 | 0.00 | 0.00 | 96 | 1013.0 |
| 20260507041312 | 56 | 193 | 1.7 | 1.7 | 0.00 | 0.00 | 0.00 | 96 | 1013.0 |
| 20260507040812 | 56 | 193 | 0.9 | 0.9 | 0.00 | 0.00 | 0.00 | 96 | 1012.0 |
| 20260507040313 | 55 | 192 | 0.9 | 0.9 | 0.00 | 0.00 | 0.00 | 96 | 1012.0 |
| 20260507035812 | 55 | 192 | 0.0 | 0.0 | 0.00 | 0.00 | 0.00 | 96 | 1012.0 |
| 20260507035312 | 55 | 192 | 0.0 | 0.0 | 0.00 | 0.00 | 0.00 | 95 | 1012.0 |
| 20260507034813 | 56 | 192 | 0.0 | 0.9 | 0.00 | 0.00 | 0.00 | 95 | 1012.0 |
| 20260507034313 | 56 | 192 | 0.9 | 0.9 | 0.00 | 0.00 | 0.00 | 96 | 1012.0 |
| 20260507033813 | 56 | 192 | 0.0 | 1.7 | 0.00 | 0.00 | 0.00 | 96 | 1012.0 |
| 20260507033312 | 56 | 192 | 0.9 | 0.9 | 0.00 | 0.00 | 0.00 | 95 | 1012.0 |
| 20260507032814 | 56 | 191 | 1.7 | 1.7 | 0.00 | 0.00 | 0.00 | 95 | 1012.0 |
| 20260507032313 | 56 | 191 | 1.7 | 1.7 | 0.00 | 0.00 | 0.00 | 95 | 1012.0 |
| 20260507031813 | 56 | 191 | 0.9 | 0.9 | 0.00 | 0.00 | 0.00 | 95 | 1012.0 |
| 20260507031312 | 57 | 191 | 0.9 | 0.9 | 0.00 | 0.00 | 0.00 | 95 | 1012.0 |
| 20260507030812 | 57 | 191 | 0.9 | 1.7 | 0.00 | 0.00 | 0.00 | 94 | 1012.0 |
| 20260507030312 | 57 | 190 | 1.7 | 2.6 | 0.00 | 0.00 | 0.00 | 94 | 1012.0 |